User: anonymous   Login
Location: Sewell
(39.7660°N, 75.1450°W)
Time: 02:28:01
(UTC-05:00)
Language:

ISS - Orbit

View from above orbital plane
View from above orbital plane
View from above satellite
View from above satellite

Ground track
Ground track

The orbit data is extracted from the following two-line orbital elements,

1 25544U 98067A   15064.97914580  .00014908  00000-0  22590-3 0  9992
2 25544 051.6445 239.5326 0008825 074.0767 033.5185 15.54835454931979
Epoch (UTC): 05 March 2015 23:29:58
Eccentricity: 0.0008825
inclination: 51.6445°
perigee height: 396 km
apogee height: 408 km
right ascension of ascending node: 239.5326°
argument of perigee: 74.0767°
revolutions per day: 15.54835454
mean anomaly at epoch: 33.5185°
orbit number at epoch: 93197

The dashed part of the orbit path shows where the satellite is in the earth's shadow,  

DLR